This demonstration page uses our WeatherBlox Daily Observations layout. Learn more.

38.89511, -77.03637

Hourly Observations for September 2, 2019

Temp ( °F °C ) Dew Point ( °F °C ) Humidity (%) Winds ( mph kmh ) Pressure ( in mb ) Visibility ( mi km ) Precip ( " mm )
12:52 am 00:52 Mostly Cloudy 73 22.8 68 20 84 84 SE 7 11 30.15 1021 10 16.09344 0 0
1:52 am 01:52 Partly Cloudy 72 22.2 68 20 87 87 SE 5 7 30.15 1021 10 16.09344 0 0
2:15 am 02:15 Cloudy 73 22.8 68 20 84 84 Calm 30.15 1021 10 16.09344 0 0
2:52 am 02:52 Cloudy 73 22.8 69 20.6 87 87 SSE 5 7 30.12 1020 10 16.09344 0 0
2:59 am 02:59 Cloudy 73 22.8 69 20.6 87 87 SSE 3 6 30.15 1021 10 16.09344 0 0
3:25 am 03:25 Cloudy 73 22.8 69 20.6 87 87 S 7 11 30.12 1020 10 16.09344 0 0
3:31 am 03:31 Cloudy 73 22.8 69 20.6 87 87 S 7 11 30.12 1020 10 16.09344 0 0
3:52 am 03:52 Cloudy 73 22.8 69 20.6 87 87 SSE 7 11 30.09 1019 10 16.09344 0 0
3:57 am 03:57 Mostly Cloudy 72 22.2 69 20.6 91 91 SSE 9 15 30.09 1019 10 16.09344 0 0
4:45 am 04:45 Cloudy 73 22.8 69 20.6 87 87 SSW 6 9 30.09 1019 10 16.09344 0 0
4:52 am 04:52 Cloudy 73 22.8 69 20.6 87 87 SSW 6 9 30.09 1019 10 16.09344 0 0
5:52 am 05:52 Mostly Cloudy 72 22.2 69 20.6 91 91 S 5 7 30.09 1019 10 16.09344 0 0
6:20 am 06:20 Cloudy 73 22.8 70 21.1 90 90 SW 5 7 30.12 1020 10 16.09344 0 0
6:52 am 06:52 Mostly Cloudy 73 22.8 70 21.1 90 90 SSW 5 7 30.09 1019 10 16.09344 0 0
7:07 am 07:07 Mostly Cloudy 73 22.8 70 21.1 90 90 S 7 11 30.09 1019 10 16.09344 0 0
7:21 am 07:21 Mostly Cloudy 74 23.3 71 21.7 91 91 S 7 11 30.09 1019 10 16.09344 0 0
7:28 am 07:28 Cloudy 74 23.3 71 21.7 91 91 SSW 7 11 30.12 1020 10 16.09344 0 0
7:52 am 07:52 Mostly Cloudy 74 23.3 70 21.1 88 88 SSW 7 11 30.09 1019 10 16.09344 0 0
8:32 am 08:32 Mostly Cloudy 75 23.9 70 21.1 84 84 SSW 8 13 30.12 1020 10 16.09344 0 0
8:52 am 08:52 Mostly Cloudy 77 25 70 21.1 79 79 SSW 9 15 30.09 1019 10 16.09344 0 0
9:02 am 09:02 Mostly Cloudy 77 25 69 20.6 77 77 SSW 13 20 30.09 1019 10 16.09344 0 0
9:09 am 09:09 Mostly Cloudy 77 25 69 20.6 77 77 S 12 19 30.09 1019 10 16.09344 0 0
9:16 am 09:16 Mostly Cloudy 78 25.6 70 21.1 76 76 SSW 8 13 30.09 1019 10 16.09344 0 0
9:33 am 09:33 Mostly Cloudy 76 24.4 68 20 77 77 SW 12 19 30.09 1019 10 16.09344 0 0
9:52 am 09:52 Mostly Cloudy 78 25.6 69 20.6 74 74 SSW 12 19 30.06 1018 10 16.09344 0 0
10:52 am 10:52 Mostly Cloudy 79 26.1 68 20 69 69 SSW 12 19 30.06 1018 10 16.09344 0 0
11:29 am 11:29 Mostly Cloudy 81 27.2 69 20.6 67 67 S 14 22 30.06 1018 10 16.09344 0 0
11:52 am 11:52 Mostly Cloudy 83 28.3 69 20.6 63 63 S 13 20 30.03 1017 10 16.09344 0 0
12:52 pm 12:52 Mostly Cloudy 86 30 69 20.6 57 57 S 15 24 30.03 1017 10 16.09344 0 0
1:52 pm 13:52 Partly Cloudy 84 28.9 70 21.1 63 63 S 13 20 30 1016 10 16.09344 0 0
3:52 pm 15:52 Mostly Cloudy 88 31.1 69 20.6 54 54 S 14 22 29.94 1014 10 16.09344 0 0
4:52 pm 16:52 Mostly Cloudy 88 31.1 69 20.6 54 54 S 12 19 29.94 1014 10 16.09344 0 0
5:52 pm 17:52 Mostly Cloudy 85 29.4 67 19.4 55 55 S 6 9 29.94 1014 10 16.09344 0 0
6:04 pm 18:04 Mostly Cloudy with Light Rain 84 28.9 68 20 59 59 SSW 8 13 29.94 1014 10 16.09344 0.001 0.001
6:40 pm 18:40 Cloudy with Thunderstorms 78 25.6 72 22.2 82 82 SW 15 24 29.97 1015 5 8.04672 0.03 0.762
6:52 pm 18:52 Mostly Cloudy with Light Thunderstorms 76 24.4 69 20.6 79 79 S 14 22 29.94 1014 10 16.09344 0.05 1.27
6:55 pm 18:55 Mostly Cloudy with Thunderstorms 75 23.9 69 20.6 82 82 SSW 10 17 29.97 1015 10 16.09344 0.001 0.001
6:58 pm 18:58 Mostly Cloudy 76 24.4 69 20.6 79 79 SSW 10 17 29.97 1015 10 16.09344 0.001 0.001
7:52 pm 19:52 Mostly Cloudy 76 24.4 70 21.1 82 82 WSW 3 6 29.94 1014 10 16.09344 0.001 0.001
8:52 pm 20:52 Cloudy with Light Rain 76 24.4 68 20 77 77 WNW 5 7 29.97 1015 10 16.09344 0.001 0.001
9:52 pm 21:52 Cloudy 77 25 71 21.7 82 82 W 7 11 30 1016 10 16.09344 0.001 0.001
10:52 pm 22:52 Mostly Cloudy 76 24.4 70 21.1 82 82 W 5 7 30 1016 10 16.09344 0 0
11:52 pm 23:52 Mostly Cloudy 75 23.9 68 20 79 79 NNW 7 11 30 1016 10 16.09344 0 0

Powered by AerisWeather